TimeMST,TemperatureF,Dew PointF,Humidity,Sea Level PressureIn,VisibilityMPH,Wind Direction,Wind SpeedMPH,Gust SpeedMPH,PrecipitationIn,Events,Conditions,WindDirDegrees,DateUTC
12:52 AM,14.0,7.0,74,30.20,10.0,Calm,Calm,-,N/A,,Clear,0,2013-11-19 07:52:00
1:52 AM,14.0,8.1,77,30.19,10.0,SW,4.6,-,N/A,,Clear,220,2013-11-19 08:52:00
2:52 AM,12.0,6.1,77,30.17,10.0,Calm,Calm,-,N/A,,Clear,0,2013-11-19 09:52:00
3:52 AM,10.9,6.1,81,30.16,10.0,South,5.8,-,N/A,,Clear,190,2013-11-19 10:52:00
4:52 AM,12.0,7.0,80,30.18,10.0,Calm,Calm,-,N/A,,Clear,0,2013-11-19 11:52:00
5:52 AM,10.9,6.1,81,30.20,10.0,South,4.6,-,N/A,,Clear,170,2013-11-19 12:52:00
6:52 AM,12.9,8.1,81,30.22,10.0,Calm,Calm,-,N/A,,Clear,0,2013-11-19 13:52:00
7:52 AM,19.9,12.0,71,30.21,10.0,Calm,Calm,-,N/A,,Clear,0,2013-11-19 14:52:00
8:52 AM,30.0,17.1,59,30.15,10.0,Calm,Calm,-,N/A,,Clear,0,2013-11-19 15:52:00
9:52 AM,35.1,19.0,52,30.15,10.0,Calm,Calm,-,N/A,,Clear,0,2013-11-19 16:52:00
10:52 AM,39.0,19.9,46,30.09,10.0,Calm,Calm,-,N/A,,Clear,0,2013-11-19 17:52:00
11:52 AM,43.0,21.0,42,30.01,10.0,Variable,4.6,-,N/A,,Clear,0,2013-11-19 18:52:00
12:52 PM,46.9,21.9,37,29.97,10.0,Calm,Calm,-,N/A,,Clear,0,2013-11-19 19:52:00
1:52 PM,51.1,21.9,32,29.91,10.0,Calm,Calm,-,N/A,,Clear,0,2013-11-19 20:52:00
2:52 PM,53.1,19.0,26,29.90,10.0,SW,3.5,-,N/A,,Clear,230,2013-11-19 21:52:00
3:52 PM,51.1,18.0,27,29.92,10.0,Calm,Calm,-,N/A,,Clear,0,2013-11-19 22:52:00
4:52 PM,48.0,18.0,30,29.93,10.0,SW,6.9,-,N/A,,Clear,220,2013-11-19 23:52:00
5:52 PM,46.0,17.1,31,29.95,10.0,WSW,13.8,-,N/A,,Partly Cloudy,240,2013-11-20 00:52:00
6:52 PM,44.1,17.1,34,29.96,10.0,WSW,12.7,-,N/A,,Mostly Cloudy,240,2013-11-20 01:52:00
7:52 PM,41.0,19.0,41,29.94,10.0,Calm,Calm,-,N/A,,Clear,0,2013-11-20 02:52:00
8:52 PM,37.0,19.0,48,29.92,10.0,NE,6.9,-,N/A,,Clear,50,2013-11-20 03:52:00
9:52 PM,34.0,19.0,54,29.92,10.0,North,5.8,-,N/A,,Clear,360,2013-11-20 04:52:00
10:52 PM,30.0,18.0,61,29.92,10.0,East,6.9,-,N/A,,Overcast,80,2013-11-20 05:52:00
11:52 PM,30.0,18.0,61,29.89,10.0,Calm,Calm,-,N/A,,Clear,0,2013-11-20 06:52:00